Terug naar catalogus

STARLINK-34719

ActiefCommunicatieSSO
NORAD 64943·PAYLOAD·🇺🇸 United States

Gelanceerd Jul 26, 2025 vanaf Vandenberg Space Force Base

Loading…

Volgende Passages (komende 24 uur)

TLE

VersSource: CelesTrak SupGP

Epoch: Sep 15, 2026, 02:25 UTC

1 64943C 25158M   26258.10118056 -.00045112  00000+0 -13997-2 0  2585
2 64943  97.2850 116.4299 0001460  90.5497 326.5493 15.33478052    17

Volg STARLINK-34719 in realtime met AllMySat

Download on the App Store